GW6022 Weather Reports


time (UTC)temp
C
wind
direction
speed
KPH
gust
KPH
rain 1hr
cm
rain 24hr
cm
rain mn
cm
humidity
%
barometer
mb
20260505052852 19 203 1.6 6.4 0.00 0.00 0.00 30 1013.7
20260505052351 19 203 1.6 4.8 0.00 0.00 0.00 31 1013.7
20260505052143 19 203 1.6 4.8 0.00 0.00 0.00 30 1013.7
20260505051852 19 203 1.6 4.8 0.00 0.00 0.00 31 1013.7
20260505051353 19 203 1.6 6.4 0.00 0.00 0.00 31 1013.7
20260505051145 19 203 1.6 6.4 0.00 0.00 0.00 31 1013.7
20260505050852 19 203 1.6 6.4 0.00 0.00 0.00 30 1013.7
20260505050630 19 200 3.2 6.4 0.00 0.00 0.00 31 1013.6
20260505050353 19 200 3.2 6.4 0.00 0.00 0.00 30 1013.6
20260505041347 20 196 1.6 4.8 0.00 0.00 0.00 30 1013.7
20260505041143 20 196 1.6 4.8 0.00 0.00 0.00 30 1013.6
20260505041112 20 196 1.6 6.4 0.00 0.00 0.00 31 1013.7
20260505040350 20 196 1.6 6.4 0.00 0.00 0.00 30 1013.6
20260505040145 20 196 3.2 6.4 0.00 0.00 0.00 31 1013.6
20260505035846 20 195 1.6 4.8 0.00 0.00 0.00 30 1013.6
20260505035346 20 194 1.6 4.8 0.00 0.00 0.00 31 1013.7
20260505035142 20 194 1.6 4.8 0.00 0.00 0.00 31 1013.7
20260505034843 20 194 1.6 4.8 0.00 0.00 0.00 31 1013.8
20260505034604 20 194 1.6 4.8 0.00 0.00 0.00 31 1013.8
20260505034140 20 194 1.6 4.8 0.00 0.00 0.00 30 1013.8
20260505033845 20 194 0.0 4.8 0.00 0.00 0.00 30 1013.8
20260505033345 20 194 0.0 4.8 0.00 0.00 0.00 30 1013.8
20260505033141 20 193 1.6 4.8 0.00 0.00 0.00 29 1013.8
20260505032840 20 194 1.6 8.0 0.00 0.00 0.00 30 1013.8
20260505032340 20 194 1.6 8.0 0.00 0.00 0.00 30 1013.8
20260505032139 20 194 1.6 6.4 0.00 0.00 0.00 30 1013.8
20260505031843 20 171 1.6 8.0 0.00 0.00 0.00 31 1013.8
20260505031601 20 170 1.6 8.0 0.00 0.00 0.00 30 1013.8
20260505031137 20 170 1.6 8.0 0.00 0.00 0.00 30 1013.8
20260505030842 20 169 3.2 8.0 0.00 0.00 0.00 31 1013.8
20260505030340 20 168 3.2 8.0 0.00 0.00 0.00 31 1013.8
20260505030137 20 168 3.2 8.0 0.00 0.00 0.00 31 1013.8
20260505025840 20 166 1.6 8.0 0.00 0.00 0.00 30 1013.8
20260505025341 21 163 1.6 8.0 0.00 0.00 0.00 29 1013.7
20260505025136 21 163 1.6 8.0 0.00 0.00 0.00 29 1013.7
20260505024842 21 163 3.2 8.0 0.00 0.00 0.00 30 1013.8
20260505024338 21 264 1.6 6.4 0.00 0.00 0.00 27 1013.9
20260505023837 21 264 1.6 11.3 0.00 0.00 0.00 27 1013.8
20260505023619 21 263 1.6 11.3 0.00 0.00 0.00 27 1013.7
20260505023337 21 263 1.6 11.3 0.00 0.00 0.00 27 1013.7
20260505023056 21 263 1.6 4.8 0.00 0.00 0.00 27 1013.7
20260505022558 22 263 0.0 4.8 0.00 0.00 0.00 26 1013.7
20260505022136 22 262 0.0 4.8 0.00 0.00 0.00 27 1013.7
20260505021836 22 262 1.6 4.8 0.00 0.00 0.00 26 1013.7
20260505021337 22 262 1.6 11.3 0.00 0.00 0.00 27 1013.7
20260505021137 22 262 3.2 11.3 0.00 0.00 0.00 26 1013.7
20260505020839 22 262 1.6 11.3 0.00 0.00 0.00 26 1013.6
20260505020337 22 262 1.6 9.7 0.00 0.00 0.00 26 1013.6
20260505020136 22 259 1.6 4.8 0.00 0.00 0.00 26 1013.6
20260505020051 22 259 0.0 4.8 0.00 0.00 0.00 26 1013.6
20260505015603 22 259 0.0 4.8 0.00 0.00 0.00 26 1013.5
20260505015138 22 259 0.0 4.8 0.00 0.00 0.00 25 1013.5
20260505014832 22 259 0.0 4.8 0.00 0.00 0.00 25 1013.4
20260505014331 22 259 0.0 4.8 0.00 0.00 0.00 24 1013.5
20260505014136 22 259 0.0 3.2 0.00 0.00 0.00 24 1013.6
20260505013832 22 259 0.0 3.2 0.00 0.00 0.00 25 1013.5
20260505013623 22 259 0.0 4.8 0.00 0.00 0.00 25 1013.4
20260505013333 22 259 0.0 4.8 0.00 0.00 0.00 25 1013.5
20260505012833 22 259 0.0 4.8 0.00 0.00 0.00 25 1013.4
20260505012332 22 259 0.0 4.8 0.00 0.00 0.00 25 1013.4
20260505012137 22 259 1.6 4.8 0.00 0.00 0.00 25 1013.4
20260505011833 22 259 1.6 4.8 0.00 0.00 0.00 25 1013.4
20260505011550 22 259 0.0 4.8 0.00 0.00 0.00 25 1013.3
20260505011137 22 259 0.0 4.8 0.00 0.00 0.00 25 1013.3
20260505010827 22 257 0.0 4.8 0.00 0.00 0.00 25 1013.4
20260505010609 22 257 1.6 4.8 0.00 0.00 0.00 25 1013.3
20260505010550 22 257 0.0 4.8 0.00 0.00 0.00 25 1013.3
20260505005825 22 258 0.0 3.2 0.00 0.00 0.00 25 1013.2
20260505005327 22 258 0.0 3.2 0.00 0.00 0.00 24 1013.2
20260505005133 22 258 0.0 4.8 0.00 0.00 0.00 24 1013.1
20260505005049 22 258 0.0 6.4 0.00 0.00 0.00 24 1013.1
20260505004322 23 258 1.6 6.4 0.00 0.00 0.00 24 1013.0
20260505004130 23 259 1.6 6.4 0.00 0.00 0.00 24 1013.0
20260505004050 23 259 1.6 4.8 0.00 0.00 0.00 23 1013.0
20260505003323 23 259 0.0 4.8 0.00 0.00 0.00 22 1013.0
20260505003131 23 259 0.0 4.8 0.00 0.00 0.00 22 1013.0
20260505002823 23 259 0.0 4.8 0.00 0.00 0.00 21 1013.0
20260505002321 23 259 0.0 4.8 0.00 0.00 0.00 20 1013.0
20260505002129 23 259 1.6 4.8 0.00 0.00 0.00 21 1013.0
20260505001818 23 259 0.0 4.8 0.00 0.00 0.00 20 1013.0
20260505001315 23 259 1.6 11.3 0.00 0.00 0.00 20 1012.9
20260505001123 23 259 1.6 11.3 0.00 0.00 0.00 20 1012.9
20260505000816 23 259 1.6 11.3 0.00 0.00 0.00 20 1012.9
20260505000314 23 259 1.6 11.3 0.00 0.00 0.00 19 1012.9
20260505000124 23 259 1.6 11.3 0.00 0.00 0.00 19 1012.9
20260505000041 23 259 1.6 11.3 0.00 0.00 0.00 19 1012.8
20260504235309 24 252 3.2 8.0 0.00 0.00 0.00 19 1012.8
20260504235124 24 252 3.2 8.0 0.00 0.00 0.00 19 1012.8
20260504234806 23 252 3.2 8.0 0.00 0.00 0.00 19 1012.8
20260504234305 24 251 1.6 8.0 0.00 0.00 0.00 19 1012.9
20260504234123 24 251 1.6 8.0 0.00 0.00 0.00 19 1012.8
20260504233804 24 246 1.6 8.0 0.00 0.00 0.00 19 1012.9
20260504233304 24 246 1.6 9.7 0.00 0.00 0.00 20 1012.9
20260504233121 24 242 1.6 9.7 0.00 0.00 0.00 20 1012.9
20260504232805 24 241 1.6 9.7 0.00 0.00 0.00 20 1012.9
20260504232259 23 232 1.6 12.9 0.00 0.00 0.00 20 1012.9
20260504232120 23 232 3.2 12.9 0.00 0.00 0.00 20 1012.8
20260504231800 23 231 1.6 12.9 0.00 0.00 0.00 19 1012.8
20260504231604 24 273 1.6 11.3 0.00 0.00 0.00 18 1013.0
20260504231519 24 273 1.6 11.3 0.00 0.00 0.00 18 1012.9
20260504230758 24 273 1.6 11.3 0.00 0.00 0.00 18 1013.0
20260504230254 25 275 1.6 11.3 0.00 0.00 0.00 17 1013.0
20260504230120 25 275 1.6 9.7 0.00 0.00 0.00 17 1013.0
20260504225751 24 277 1.6 6.4 0.00 0.00 0.00 18 1012.9
20260504225251 24 277 3.2 11.3 0.00 0.00 0.00 18 1013.0
20260504225117 25 277 1.6 11.3 0.00 0.00 0.00 17 1013.0
20260504224750 25 271 1.6 11.3 0.00 0.00 0.00 17 1013.0
20260504224602 25 269 1.6 12.9 0.00 0.00 0.00 18 1012.9
20260504224250 25 269 1.6 12.9 0.00 0.00 0.00 18 1013.0
20260504223751 25 269 3.2 12.9 0.00 0.00 0.00 17 1013.0
20260504223243 25 266 3.2 11.3 0.00 0.00 0.00 17 1012.9
20260504223116 25 266 3.2 11.3 0.00 0.00 0.00 17 1013.0
20260504222745 25 267 1.6 11.3 0.00 0.00 0.00 16 1013.0
20260504222242 26 271 1.6 11.3 0.00 0.00 0.00 17 1013.0
20260504222116 25 271 1.6 11.3 0.00 0.00 0.00 17 1013.0
20260504221740 26 273 1.6 11.3 0.00 0.00 0.00 17 1013.0
20260504221241 25 273 3.2 12.9 0.00 0.00 0.00 17 1013.0
20260504221115 25 272 3.2 12.9 0.00 0.00 0.00 17 1013.0
20260504220739 25 271 3.2 12.9 0.00 0.00 0.00 17 1013.1
20260504220240 25 272 3.2 12.9 0.00 0.00 0.00 17 1013.0
20260504220115 25 269 3.2 12.9 0.00 0.00 0.00 17 1012.9
20260504215741 25 264 3.2 12.9 0.00 0.00 0.00 18 1012.9
20260504215502 26 263 1.6 9.7 0.00 0.00 0.00 17 1012.8
20260504215116 26 263 1.6 9.7 0.00 0.00 0.00 18 1012.8
20260504214739 25 263 3.2 9.7 0.00 0.00 0.00 17 1012.7
20260504214241 26 261 3.2 9.7 0.00 0.00 0.00 17 1012.8
20260504214116 26 259 3.2 9.7 0.00 0.00 0.00 16 1012.8
20260504213741 26 261 1.6 9.7 0.00 0.00 0.00 15 1012.8
20260504213239 26 257 1.6 8.0 0.00 0.00 0.00 15 1012.8
20260504213115 26 249 1.6 8.0 0.00 0.00 0.00 16 1012.8
20260504212956 26 235 1.6 8.0 0.00 0.00 0.00 16 1012.8
20260504212240 26 229 3.2 9.7 0.00 0.00 0.00 16 1012.7
20260504212115 26 230 3.2 9.7 0.00 0.00 0.00 16 1012.7
20260504211741 26 230 1.6 9.7 0.00 0.00 0.00 16 1012.7
20260504211241 26 188 1.6 4.8 0.00 0.00 0.00 16 1012.8
20260504211118 26 188 1.6 8.0 0.00 0.00 0.00 16 1012.8
20260504210503 27 188 1.6 9.7 0.00 0.00 0.00 15 1012.8
20260504205736 27 267 1.6 9.7 0.00 0.00 0.00 15 1012.9
20260504205235 28 269 1.6 6.4 0.00 0.00 0.00 14 1013.1
20260504205116 28 269 1.6 14.5 0.00 0.00 0.00 14 1013.1
20260504204735 28 269 3.2 14.5 0.00 0.00 0.00 15 1013.1
20260504204235 27 268 3.2 14.5 0.00 0.00 0.00 14 1013.0
20260504204116 27 269 3.2 12.9 0.00 0.00 0.00 14 1013.0
20260504203736 28 271 3.2 12.9 0.00 0.00 0.00 14 1013.0
20260504203234 28 268 1.6 4.8 0.00 0.00 0.00 14 1013.1
20260504202735 28 268 0.0 6.4 0.00 0.00 0.00 14 1013.1
20260504202236 27 269 0.0 6.4 0.00 0.00 0.00 13 1013.1
20260504202116 28 269 0.0 6.4 0.00 0.00 0.00 13 1013.1
20260504201731 28 268 0.0 14.5 0.00 0.00 0.00 13 1013.2
20260504201454 28 268 0.0 14.5 0.00 0.00 0.00 14 1013.2
20260504201115 28 268 1.6 14.5 0.00 0.00 0.00 15 1013.3
20260504200954 27 268 1.6 14.5 0.00 0.00 0.00 15 1013.4
20260504200455 28 268 1.6 14.5 0.00 0.00 0.00 14 1013.4
20260504200116 28 268 1.6 14.5 0.00 0.00 0.00 14 1013.5
20260504195734 29 264 0.0 4.8 0.00 0.00 0.00 14 1013.4
20260504195604 28 264 0.0 3.2 0.00 0.00 0.00 13 1013.4
20260504195236 28 264 0.0 3.2 0.00 0.00 0.00 14 1013.4
20260504194233 28 264 1.6 4.8 0.00 0.00 0.00 15 1013.7
20260504194114 27 264 1.6 4.8 0.00 0.00 0.00 14 1013.7
20260504193733 28 264 1.6 4.8 0.00 0.00 0.00 14 1013.7
20260504193229 28 263 1.6 6.4 0.00 0.00 0.00 13 1013.8
20260504193113 28 263 1.6 6.4 0.00 0.00 0.00 13 1013.8
20260504192946 27 263 1.6 6.4 0.00 0.00 0.00 12 1013.9
20260504192227 27 264 1.6 9.7 0.00 0.00 0.00 11 1013.9
20260504192113 27 264 1.6 9.7 0.00 0.00 0.00 12 1014.0
20260504191727 28 264 1.6 9.7 0.00 0.00 0.00 12 1014.0
20260504191448 28 261 1.6 6.4 0.00 0.00 0.00 14 1014.0
20260504191113 28 261 1.6 6.4 0.00 0.00 0.00 14 1014.0
20260504190946 27 261 1.6 6.4 0.00 0.00 0.00 16 1014.1
20260504190226 28 261 1.6 6.4 0.00 0.00 0.00 15 1014.1
20260504190114 28 261 1.6 6.4 0.00 0.00 0.00 15 1014.2
20260504185725 27 261 1.6 6.4 0.00 0.00 0.00 16 1014.2
20260504185226 27 261 1.6 6.4 0.00 0.00 0.00 17 1014.4
20260504185112 27 260 1.6 6.4 0.00 0.00 0.00 17 1014.4
20260504184726 28 262 0.0 6.4 0.00 0.00 0.00 16 1014.5
20260504184225 28 259 0.0 4.8 0.00 0.00 0.00 16 1014.5
20260504184114 28 259 0.0 4.8 0.00 0.00 0.00 16 1014.6
20260504183728 28 259 0.0 4.8 0.00 0.00 0.00 16 1014.6
20260504183225 27 259 0.0 4.8 0.00 0.00 0.00 16 1014.6
20260504183113 27 259 1.6 4.8 0.00 0.00 0.00 16 1014.6
20260504182724 27 259 1.6 3.2 0.00 0.00 0.00 16 1014.7
20260504182448 28 259 0.0 3.2 0.00 0.00 0.00 15 1014.8
20260504182114 28 259 0.0 3.2 0.00 0.00 0.00 15 1014.7
20260504181731 27 261 0.0 3.2 0.00 0.00 0.00 14 1014.8
20260504181231 27 261 0.0 3.2 0.00 0.00 0.00 15 1014.9
20260504180725 27 261 0.0 3.2 0.00 0.00 0.00 16 1015.0
20260504180223 28 261 0.0 1.6 0.00 0.00 0.00 16 1015.0
20260504180113 28 261 0.0 1.6 0.00 0.00 0.00 15 1015.0
20260504175724 28 261 0.0 1.6 0.00 0.00 0.00 17 1015.1
20260504175226 28 261 0.0 1.6 0.00 0.00 0.00 17 1015.2
20260504175111 28 261 0.0 1.6 0.00 0.00 0.00 17 1015.2
20260504174723 27 261 0.0 1.6 0.00 0.00 0.00 17 1015.2
20260504174224 27 261 0.0 1.6 0.00 0.00 0.00 18 1015.3
20260504174111 27 261 0.0 1.6 0.00 0.00 0.00 18 1015.3
20260504173721 27 261 0.0 1.6 0.00 0.00 0.00 18 1015.3
20260504173223 26 261 0.0 3.2 0.00 0.00 0.00 19 1015.3
20260504173110 26 261 0.0 3.2 0.00 0.00 0.00 19 1015.3
20260504172721 27 261 0.0 3.2 0.00 0.00 0.00 19 1015.4
20260504172442 26 261 0.0 3.2 0.00 0.00 0.00 20 1015.4
20260504172110 26 261 0.0 3.2 0.00 0.00 0.00 20 1015.5
20260504171947 26 261 0.0 4.8 0.00 0.00 0.00 20 1015.6
20260504171552 25 261 0.0 4.8 0.00 0.00 0.00 21 1015.6
20260504171228 26 261 0.0 4.8 0.00 0.00 0.00 21 1015.6
20260504170719 25 261 0.0 4.8 0.00 0.00 0.00 21 1015.7
20260504170108 25 261 0.0 4.8 0.00 0.00 0.00 21 1015.7
20260504160200 24 261 0.0 3.2 0.00 0.00 0.00 21 1016.4
20260504160106 24 261 0.0 3.2 0.00 0.00 0.00 21 1016.4
20260504151141 22 261 0.0 3.2 0.00 0.00 0.00 24 1016.6
20260504151105 22 261 0.0 1.6 0.00 0.00 0.00 24 1016.6
20260504150637 21 261 0.0 6.4 0.00 0.00 0.00 25 1016.5
20260504150135 21 261 0.0 6.4 0.00 0.00 0.00 25 1016.6
20260504150104 21 261 0.0 6.4 0.00 0.00 0.00 25 1016.6
20260504141103 19 261 1.6 6.4 0.00 0.00 0.00 28 1016.8
20260504140627 19 260 0.0 6.4 0.00 0.00 0.00 28 1016.9
20260504130628 15 260 0.0 1.6 0.00 0.00 0.00 36 1016.7
20260504130349 15 260 0.0 1.6 0.00 0.00 0.00 38 1016.7
20260504110622 13 260 3.2 6.4 0.00 0.00 0.00 38 1016.2
20260504110548 13 260 1.6 4.8 0.00 0.00 0.00 38 1016.1
20260504110213 13 260 1.6 4.8 0.00 0.00 0.00 38 1016.1
20260504090110 13 260 0.0 3.2 0.00 0.00 0.00 40 1016.2
20260504081552 13 260 0.0 0.0 0.00 0.00 0.00 41 1016.1
20260504081310 13 260 0.0 0.0 0.00 0.00 0.00 41 1016.1
20260504081153 13 260 0.0 0.0 0.00 0.00 0.00 41 1016.1
20260504080546 13 260 0.0 0.0 0.00 0.00 0.00 41 1016.1